N0QWM Weather Reports


Display with metric or nautical units.
time (UTC)temp
F
wind
direction
speed
MPH
gust
MPH
rain 1hr
in
rain 24hr
in
rain mn
in
humidity
%
barometer
mb
20260906102858 79 271 1.0 1.0 0.00 0.00 0.00 85 1018.3
20260906102357 79 101 0.0 1.0 0.00 0.00 0.00 85 1018.2
20260906101852 78 341 0.0 0.0 0.00 0.00 0.00 87 1018.1
20260906101347 78 315 0.0 1.0 0.00 0.00 0.00 91 1018.0
20260906100843 78 313 0.0 1.0 0.00 0.00 0.00 94 1017.9
20260906100342 78 327 1.0 1.0 0.00 0.00 0.00 95 1018.1
20260906095837 78 270 0.0 0.0 0.00 0.00 0.00 95 1017.8
20260906095333 78 270 0.0 0.0 0.00 0.00 0.00 95 1017.6
20260906094832 78 269 0.0 0.0 0.00 0.00 0.00 95 1017.4
20260906094327 78 269 0.0 0.0 0.00 0.00 0.00 96 1017.5
20260906093823 78 269 1.0 1.0 0.00 0.00 0.00 96 1017.5
20260906093319 78 288 0.0 0.0 0.00 0.00 0.00 96 1017.4
20260906092813 78 288 0.0 0.0 0.00 0.00 0.00 96 1017.2
20260906092308 78 288 0.0 0.0 0.00 0.00 0.00 96 1017.3
20260906091804 78 288 0.0 0.0 0.00 0.00 0.00 96 1017.3
20260906091300 78 288 0.0 0.0 0.00 0.00 0.00 96 1017.4
20260906090756 78 288 0.0 0.0 0.00 0.00 0.00 96 1017.3
20260906090255 78 288 0.0 0.0 0.00 0.00 0.00 96 1017.3
20260906085754 78 288 0.0 0.0 0.00 0.00 0.00 96 1017.1
20260906085253 78 289 0.0 0.0 0.00 0.00 0.00 96 1017.3
20260906084749 78 289 0.0 0.0 0.00 0.00 0.00 96 1017.2
20260906084248 78 289 0.0 0.0 0.00 0.00 0.00 96 1017.2
20260906083743 78 289 0.0 0.0 0.00 0.00 0.00 96 1017.4
20260906083239 78 288 0.0 0.0 0.00 0.00 0.00 96 1017.5
20260906082733 78 288 0.0 0.0 0.00 0.00 0.00 96 1017.7
20260906082229 78 289 0.0 0.0 0.00 0.00 0.00 96 1017.6
20260906081725 77 303 0.0 0.0 0.00 0.00 0.00 96 1017.7
20260906081219 77 304 0.0 0.0 0.00 0.00 0.00 96 1017.6
20260906080716 77 304 0.0 0.0 0.00 0.00 0.00 96 1017.8
20260906080212 77 298 0.0 0.0 0.00 0.00 0.00 96 1017.8
20260906075706 77 294 0.0 0.0 0.00 0.00 0.00 95 1017.7
20260906075201 77 293 0.0 0.0 0.00 0.00 0.00 95 1017.4
20260906074656 77 294 0.0 0.0 0.00 0.00 0.00 95 1017.6
20260906074155 77 294 0.0 0.0 0.00 0.00 0.00 95 1017.3
20260906073650 77 294 0.0 0.0 0.00 0.00 0.00 95 1017.4
20260906073140 77 294 0.0 0.0 0.00 0.00 0.00 95 1017.3
20260906072635 77 294 0.0 0.0 0.00 0.00 0.00 95 1017.4
20260906072130 77 294 0.0 0.0 0.00 0.00 0.00 95 1017.4
20260906071626 77 294 0.0 0.0 0.00 0.00 0.00 95 1017.2
20260906071121 77 282 0.0 0.0 0.00 0.00 0.00 95 1017.4
20260906070618 77 281 0.0 0.0 0.00 0.00 0.00 95 1017.4
20260906070113 77 282 0.0 0.0 0.00 0.00 0.00 95 1017.4
20260906065612 77 281 0.0 0.0 0.00 0.00 0.00 95 1017.6
20260906065108 77 281 0.0 0.0 0.00 0.00 0.00 95 1017.6
20260906064604 77 281 0.0 0.0 0.00 0.00 0.00 94 1017.6
20260906064058 77 281 0.0 0.0 0.00 0.00 0.00 94 1017.7
20260906063554 78 281 0.0 0.0 0.00 0.00 0.00 94 1017.9
20260906063049 78 282 0.0 0.0 0.00 0.00 0.00 94 1018.0
20260906062545 77 278 0.0 0.0 0.00 0.00 0.00 94 1018.0
20260906062038 77 278 0.0 0.0 0.00 0.00 0.00 94 1017.9
20260906061535 78 279 0.0 0.0 0.00 0.00 0.00 94 1017.9
20260906061034 78 278 0.0 0.0 0.00 0.00 0.00 94 1018.0
20260906060531 78 278 0.0 0.0 0.00 0.00 0.00 93 1017.9
20260906060028 78 278 0.0 0.0 0.00 0.00 0.00 93 1018.1
20260906055523 78 278 0.0 0.0 0.00 0.00 0.00 93 1017.9
20260906055019 78 278 0.0 0.0 0.00 0.00 0.00 92 1018.1
20260906054519 78 300 0.0 0.0 0.00 0.00 0.00 92 1018.2
20260906054014 78 300 0.0 0.0 0.00 0.00 0.00 92 1018.3
20260906053510 79 292 0.0 0.0 0.00 0.00 0.00 92 1018.2
20260906053005 79 292 0.0 0.0 0.00 0.00 0.00 91 1018.3
20260906052501 79 292 0.0 0.0 0.00 0.00 0.00 91 1018.0
20260906051958 78 307 0.0 0.0 0.00 0.00 0.00 92 1018.1
20260906051453 78 307 0.0 0.0 0.00 0.00 0.00 92 1018.3
20260906050949 78 307 0.0 0.0 0.00 0.00 0.00 92 1018.3
20260906050448 79 308 0.0 0.0 0.00 0.00 0.00 91 1018.2
20260906045948 79 308 0.0 0.0 0.00 0.00 0.00 91 1018.1
20260906045447 78 303 0.0 0.0 0.00 0.00 0.00 92 1018.1
20260906044943 78 287 0.0 0.0 0.00 0.00 0.00 92 1017.9
20260906044438 78 287 0.0 0.0 0.00 0.00 0.00 92 1017.9
20260906043933 78 287 0.0 0.0 0.00 0.00 0.00 92 1017.9
20260906043429 79 287 0.0 0.0 0.00 0.00 0.00 91 1018.1
20260906042925 79 287 0.0 0.0 0.00 0.00 0.00 91 1018.0
20260906042424 79 287 0.0 0.0 0.00 0.00 0.00 91 1018.2
20260906041919 79 287 0.0 0.0 0.00 0.00 0.00 91 1018.3
20260906041415 79 286 0.0 0.0 0.00 0.00 0.00 91 1018.2
20260906040915 79 286 0.0 0.0 0.00 0.00 0.00 90 1018.3
20260906040410 79 287 0.0 0.0 0.00 0.00 0.00 90 1018.2
20260906035905 79 286 0.0 0.0 0.00 0.00 0.00 90 1018.2
20260906035401 79 286 0.0 0.0 0.00 0.00 0.00 90 1018.0
20260906034855 79 286 0.0 0.0 0.00 0.00 0.00 90 1018.2
20260906034350 80 286 0.0 0.0 0.00 0.00 0.00 89 1018.2
20260906033846 80 286 0.0 0.0 0.00 0.00 0.00 89 1018.2
20260906033345 80 286 0.0 0.0 0.00 0.00 0.00 89 1018.3
20260906032842 80 286 0.0 0.0 0.00 0.00 0.00 89 1017.8
20260906032337 80 286 0.0 0.0 0.00 0.00 0.00 89 1018.2
20260906031832 80 286 0.0 0.0 0.00 0.00 0.00 89 1017.9
20260906031328 80 286 0.0 0.0 0.00 0.00 0.00 89 1018.1
20260906030827 80 284 0.0 0.0 0.00 0.00 0.00 88 1018.3
20260906030323 80 270 0.0 0.0 0.00 0.00 0.00 88 1018.1
20260906025817 80 273 0.0 0.0 0.00 0.00 0.00 88 1018.1
20260906025311 81 273 0.0 0.0 0.00 0.00 0.00 87 1018.1
20260906024810 81 273 0.0 0.0 0.00 0.00 0.00 87 1018.2
20260906024309 81 260 0.0 0.0 0.00 0.00 0.00 87 1018.2
20260906023805 81 260 0.0 0.0 0.00 0.00 0.00 86 1018.1
20260906023300 81 258 0.0 0.0 0.00 0.00 0.00 86 1018.1
20260906022756 81 258 0.0 0.0 0.00 0.00 0.00 86 1018.0
20260906022251 81 257 0.0 0.0 0.00 0.00 0.00 86 1018.1
20260906021747 81 258 0.0 0.0 0.00 0.00 0.00 86 1017.9
20260906021246 82 258 0.0 0.0 0.00 0.00 0.00 85 1018.0
20260906020741 82 258 0.0 0.0 0.00 0.00 0.00 85 1017.7
20260906020241 82 258 0.0 0.0 0.00 0.00 0.00 85 1018.0
20260906015735 82 257 0.0 0.0 0.00 0.00 0.00 85 1017.7
20260906015234 82 258 0.0 0.0 0.00 0.00 0.00 85 1017.7
20260906014729 82 258 0.0 0.0 0.00 0.00 0.00 84 1017.3
20260906014225 82 258 0.0 0.0 0.00 0.00 0.00 84 1017.5
20260906013721 82 258 0.0 0.0 0.00 0.00 0.00 84 1017.4
20260906013220 83 255 0.0 0.0 0.00 0.00 0.00 83 1017.2
20260906012715 83 254 0.0 1.0 0.00 0.00 0.00 83 1017.3
20260906012210 83 269 0.0 1.0 0.00 0.00 0.00 82 1017.0
20260906011706 83 243 0.0 0.0 0.00 0.00 0.00 82 1017.0
20260906011200 83 235 1.0 1.0 0.00 0.00 0.00 82 1016.7
20260906010655 83 299 0.0 1.0 0.00 0.00 0.00 82 1016.6
20260906010152 84 287 0.0 0.0 0.00 0.00 0.00 81 1016.7
20260906005651 84 287 0.0 0.0 0.00 0.00 0.00 81 1016.7
20260906005150 84 287 0.0 0.0 0.00 0.00 0.00 80 1016.8
20260906004649 84 276 0.0 0.0 0.00 0.00 0.00 81 1016.6
20260906004145 84 269 0.0 0.0 0.00 0.00 0.00 81 1016.6
20260906003640 84 289 0.0 0.0 0.00 0.00 0.00 81 1016.6
20260906003135 84 280 1.0 2.0 0.00 0.00 0.00 81 1016.5
20260906002630 85 255 1.0 1.0 0.00 0.00 0.00 80 1016.5
20260906002125 85 255 0.0 0.0 0.00 0.00 0.00 80 1016.6
20260906001621 85 265 1.0 1.0 0.00 0.00 0.00 80 1016.9
20260906001120 85 280 0.0 0.0 0.00 0.00 0.00 79 1016.7
20260906000616 86 257 2.0 3.0 0.00 0.00 0.00 79 1016.8
20260906000112 86 210 0.0 1.0 0.00 0.00 0.00 78 1016.7
20260905235610 86 292 1.0 2.0 0.00 0.00 0.00 78 1016.9
20260905235106 86 289 0.0 1.0 0.00 0.00 0.00 78 1016.8
20260905234601 86 281 1.0 2.0 0.00 0.00 0.00 78 1016.6
20260905234056 87 288 0.0 1.0 0.00 0.00 0.00 78 1016.8
20260905233556 87 219 0.0 1.0 0.00 0.00 0.00 78 1016.7
20260905233050 87 268 3.0 6.0 0.00 0.00 0.00 77 1016.9
20260905232546 87 236 1.0 2.0 0.00 0.00 0.00 77 1016.8
20260905232042 88 248 2.0 2.0 0.00 0.00 0.00 76 1016.8
20260905231536 88 276 0.0 1.0 0.00 0.00 0.00 77 1016.8
20260905231033 88 249 2.0 2.0 0.00 0.00 0.00 77 1016.7
20260905230532 88 280 1.0 2.0 0.00 0.00 0.00 76 1016.5
20260905230031 88 298 2.0 3.0 0.00 0.00 0.00 76 1016.7
20260905225525 89 250 1.0 1.0 0.00 0.00 0.00 76 1016.8
20260905225021 89 284 4.0 5.0 0.00 0.00 0.00 75 1016.7
20260905224515 89 261 0.0 1.0 0.00 0.00 0.00 75 1016.5
20260905224014 90 271 4.0 7.0 0.00 0.00 0.00 74 1016.6
20260905223513 91 261 3.0 3.0 0.00 0.00 0.00 73 1016.3
20260905223008 91 267 2.0 3.0 0.00 0.00 0.00 71 1016.4
20260905222508 92 155 3.0 5.0 0.00 0.00 0.00 70 1016.4
20260905222003 92 286 3.0 3.0 0.00 0.00 0.00 69 1016.4
20260905221500 93 203 2.0 2.0 0.00 0.00 0.00 68 1016.5
20260905220955 93 281 2.0 2.0 0.00 0.00 0.00 67 1016.4
20260905220451 94 290 5.0 7.0 0.00 0.00 0.00 67 1016.5
20260905215950 94 300 1.0 1.0 0.00 0.00 0.00 66 1016.3
20260905215446 94 259 2.0 5.0 0.00 0.00 0.00 66 1016.3
20260905214942 95 244 0.0 0.0 0.00 0.00 0.00 66 1016.0
20260905214438 94 256 1.0 2.0 0.00 0.00 0.00 65 1016.1
20260905213938 94 283 2.0 2.0 0.00 0.00 0.00 66 1016.0
20260905213434 95 277 3.0 5.0 0.00 0.00 0.00 65 1016.1
20260905212929 95 281 2.0 2.0 0.00 0.00 0.00 64 1016.2
20260905212424 94 179 2.0 2.0 0.00 0.00 0.00 65 1016.3
20260905211923 93 64 1.0 1.0 0.00 0.00 0.00 66 1016.2
20260905211419 94 330 1.0 2.0 0.00 0.00 0.00 65 1016.2
20260905210915 94 290 1.0 2.0 0.00 0.00 0.00 62 1016.3
20260905210415 95 289 3.0 3.0 0.00 0.00 0.00 61 1016.2
20260905205914 96 252 1.0 2.0 0.00 0.00 0.00 60 1016.2
20260905205409 97 17 1.0 3.0 0.00 0.00 0.00 59 1016.3
20260905204908 98 268 0.0 1.0 0.00 0.00 0.00 56 1016.4
20260905204404 98 303 1.0 1.0 0.00 0.00 0.00 55 1016.5
20260905203903 97 259 2.0 2.0 0.00 0.00 0.00 57 1016.5
20260905203359 98 287 0.0 0.0 0.00 0.00 0.00 57 1016.5
20260905202854 99 325 2.0 3.0 0.00 0.00 0.00 55 1016.5
20260905202349 98 307 1.0 2.0 0.00 0.00 0.00 56 1016.7
20260905201845 97 248 1.0 1.0 0.00 0.00 0.00 60 1016.7
20260905201340 97 253 0.0 0.0 0.00 0.00 0.00 59 1016.6
20260905200840 97 266 3.0 3.0 0.00 0.00 0.00 60 1016.7
20260905200336 97 266 1.0 1.0 0.00 0.00 0.00 59 1016.7
20260905195834 96 239 4.0 5.0 0.00 0.00 0.00 61 1017.0
20260905195329 97 265 4.0 6.0 0.00 0.00 0.00 60 1017.1
20260905194825 96 282 2.0 2.0 0.00 0.00 0.00 60 1016.7
20260905194325 96 272 2.0 2.0 0.00 0.00 0.00 60 1016.9
20260905193824 95 259 2.0 5.0 0.00 0.00 0.00 61 1016.9
20260905193319 96 281 2.0 3.0 0.00 0.00 0.00 64 1016.8
20260905192815 95 292 1.0 2.0 0.00 0.00 0.00 63 1016.9
20260905192311 94 123 3.0 5.0 0.00 0.00 0.00 64 1017.3
20260905191809 92 238 3.0 5.0 0.00 0.00 0.00 67 1017.2
20260905191308 93 164 2.0 2.0 0.00 0.00 0.00 67 1017.6
20260905190807 93 293 4.0 6.0 0.00 0.00 0.00 67 1017.4
20260905190307 94 253 5.0 7.0 0.00 0.00 0.00 66 1017.5
20260905185806 94 3 1.0 1.0 0.00 0.00 0.00 65 1017.6
20260905185305 95 248 1.0 1.0 0.00 0.00 0.00 64 1017.6
20260905184801 97 269 0.0 1.0 0.00 0.00 0.00 61 1017.6
20260905184300 97 103 3.0 3.0 0.00 0.00 0.00 59 1018.0
20260905183759 99 198 2.0 2.0 0.00 0.00 0.00 50 1017.8
20260905183254 98 230 1.0 2.0 0.00 0.00 0.00 52 1017.8
20260905182753 98 273 1.0 2.0 0.00 0.00 0.00 51 1017.8
20260905182248 96 99 5.0 6.0 0.00 0.00 0.00 52 1018.0
20260905181743 97 105 1.0 2.0 0.00 0.00 0.00 52 1018.0
20260905181243 98 144 2.0 2.0 0.00 0.00 0.00 50 1018.1
20260905180738 99 272 1.0 1.0 0.00 0.00 0.00 49 1018.1
20260905180233 98 261 1.0 1.0 0.00 0.00 0.00 52 1018.2
20260905175732 97 307 2.0 2.0 0.00 0.00 0.00 52 1018.3
20260905175227 98 287 1.0 1.0 0.00 0.00 0.00 51 1018.3
20260905174722 96 259 0.0 1.0 0.00 0.00 0.00 52 1018.5
20260905174218 96 42 2.0 2.0 0.00 0.00 0.00 53 1018.7
20260905173714 97 136 3.0 3.0 0.00 0.00 0.00 52 1018.7
20260905173210 97 103 3.0 3.0 0.00 0.00 0.00 51 1019.0
20260905172709 95 275 1.0 1.0 0.00 0.00 0.00 55 1019.1
20260905172203 95 161 5.0 7.0 0.00 0.00 0.00 52 1019.1
20260905171659 95 228 1.0 1.0 0.00 0.00 0.00 54 1018.9
20260905171155 95 187 1.0 1.0 0.00 0.00 0.00 54 1019.2
20260905170652 95 101 1.0 2.0 0.00 0.00 0.00 56 1019.0
20260905170147 96 194 2.0 2.0 0.00 0.00 0.00 54 1019.2
20260905165646 96 272 0.0 0.0 0.00 0.00 0.00 52 1019.3
20260905165142 97 303 2.0 2.0 0.00 0.00 0.00 52 1019.6
20260905164637 97 248 1.0 1.0 0.00 0.00 0.00 55 1019.4
20260905164136 96 277 2.0 3.0 0.00 0.00 0.00 56 1019.5
20260905163632 96 45 1.0 2.0 0.00 0.00 0.00 54 1019.5
20260905163128 94 260 0.0 1.0 0.00 0.00 0.00 60 1019.5
20260905162624 93 187 1.0 1.0 0.00 0.00 0.00 61 1019.8
20260905162123 93 280 1.0 1.0 0.00 0.00 0.00 62 1019.4
20260905161618 94 166 1.0 1.0 0.00 0.00 0.00 60 1019.8
20260905161115 94 279 1.0 1.0 0.00 0.00 0.00 60 1019.9
20260905160615 95 307 2.0 2.0 0.00 0.00 0.00 59 1019.9
20260905160109 95 283 0.0 1.0 0.00 0.00 0.00 60 1019.8
20260905155604 94 266 0.0 1.0 0.00 0.00 0.00 64 1019.7
20260905155103 94 264 1.0 2.0 0.00 0.00 0.00 61 1019.8
20260905154557 94 263 1.0 1.0 0.00 0.00 0.00 60 1019.7
20260905154053 94 268 0.0 1.0 0.00 0.00 0.00 61 1019.6
20260905153549 93 153 0.0 1.0 0.00 0.00 0.00 63 1019.5
20260905153048 93 235 0.0 1.0 0.00 0.00 0.00 65 1019.8
20260905152543 92 304 1.0 1.0 0.00 0.00 0.00 67 1019.6
20260905152039 91 314 2.0 2.0 0.00 0.00 0.00 70 1019.7
20260905151533 93 103 3.0 3.0 0.00 0.00 0.00 64 1019.6
20260905151028 93 313 2.0 2.0 0.00 0.00 0.00 66 1019.8
20260905150524 93 307 1.0 2.0 0.00 0.00 0.00 65 1019.8
20260905150021 92 332 1.0 2.0 0.00 0.00 0.00 67 1019.9
20260905145515 91 286 0.0 1.0 0.00 0.00 0.00 69 1019.6
20260905145015 90 312 1.0 1.0 0.00 0.00 0.00 71 1019.7
20260905144510 90 2 0.0 1.0 0.00 0.00 0.00 69 1019.6
20260905144009 91 171 3.0 3.0 0.00 0.00 0.00 70 1019.8
20260905143508 91 273 0.0 1.0 0.00 0.00 0.00 71 1020.0
20260905143003 89 234 1.0 1.0 0.00 0.00 0.00 72 1020.0
20260905142501 88 267 0.0 1.0 0.00 0.00 0.00 75 1019.9
20260905141957 88 0 1.0 1.0 0.00 0.00 0.00 74 1019.8
20260905141452 88 288 0.0 0.0 0.00 0.00 0.00 74 1019.9
20260905140948 88 257 0.0 1.0 0.00 0.00 0.00 74 1019.9
20260905140443 87 219 1.0 2.0 0.00 0.00 0.00 75 1020.2
20260905135942 87 276 0.0 0.0 0.00 0.00 0.00 76 1019.9
20260905135438 86 273 0.0 0.0 0.00 0.00 0.00 77 1020.1
20260905134933 84 254 0.0 1.0 0.00 0.00 0.00 80 1020.1
20260905134432 83 323 1.0 1.0 0.00 0.00 0.00 82 1020.0
20260905133931 83 255 1.0 1.0 0.00 0.00 0.00 83 1019.7
20260905133426 82 297 0.0 0.0 0.00 0.00 0.00 85 1019.9
20260905132926 81 285 0.0 1.0 0.00 0.00 0.00 87 1020.0
20260905132421 80 307 1.0 1.0 0.00 0.00 0.00 88 1020.1
20260905131916 80 289 0.0 1.0 0.00 0.00 0.00 88 1020.1
20260905131412 80 291 0.0 0.0 0.00 0.00 0.00 89 1020.1
20260905130906 79 274 0.0 0.0 0.00 0.00 0.00 90 1020.0
20260905130406 78 297 1.0 1.0 0.00 0.00 0.00 92 1020.4
20260905125901 77 297 0.0 0.0 0.00 0.00 0.00 93 1020.1
20260905125355 77 296 0.0 0.0 0.00 0.00 0.00 94 1020.4
20260905124851 76 298 0.0 0.0 0.00 0.00 0.00 95 1020.3
20260905124348 75 298 0.0 0.0 0.00 0.00 0.00 97 1020.4
20260905123842 75 298 0.0 0.0 0.00 0.00 0.00 97 1020.3
20260905123339 75 298 0.0 0.0 0.00 0.00 0.00 98 1020.4
20260905122839 74 298 0.0 0.0 0.00 0.00 0.00 98 1020.2
20260905122338 74 298 0.0 0.0 0.00 0.00 0.00 99 1020.3
20260905121833 74 298 0.0 0.0 0.00 0.00 0.00 99 1020.2
20260905121330 74 298 0.0 0.0 0.00 0.00 0.00 99 1020.1
20260905120828 73 298 0.0 0.0 0.00 0.00 0.00 99 1020.1
20260905120323 73 298 0.0 0.0 0.00 0.00 0.00 99 1020.0
20260905115818 73 298 0.0 0.0 0.00 0.00 0.00 99 1019.7
20260905115318 73 298 0.0 0.0 0.00 0.00 0.00 99 1019.8
20260905114817 73 298 0.0 0.0 0.00 0.00 0.00 99 1020.0
20260905114317 73 298 0.0 0.0 0.00 0.00 0.00 99 1019.9
20260905113816 73 298 0.0 0.0 0.00 0.00 0.00 99 1019.7
20260905113312 73 298 0.0 0.0 0.00 0.00 0.00 99 1020.0
20260905112807 73 298 0.0 0.0 0.00 0.00 0.00 99 1020.0
20260905112305 73 298 0.0 0.0 0.00 0.00 0.00 99 1019.8
20260905111756 73 298 0.0 0.0 0.00 0.00 0.00 99 1019.8
20260905111251 73 298 0.0 0.0 0.00 0.00 0.00 99 1019.8
20260905110750 73 298 0.0 0.0 0.00 0.00 0.00 99 1019.6
20260905110244 73 298 0.0 0.0 0.00 0.00 0.00 99 1019.7
20260905105740 73 298 0.0 0.0 0.00 0.00 0.00 99 1019.7
20260905105239 73 298 0.0 0.0 0.00 0.00 0.00 99 1019.7
20260905104734 73 298 0.0 0.0 0.00 0.00 0.00 99 1019.6
20260905104230 73 298 0.0 0.0 0.00 0.00 0.00 99 1019.5
20260905103724 73 298 0.0 0.0 0.00 0.00 0.00 98 1019.6